Regional Weather Roundup
Issued by NWS Northern Indiana

Home | Current Version | Previous Version | Graphics & Text | Print | Product List | Glossary On
Versions: 1 2 3 4 5 6 7 8 9 10 11 12 13 14 15 16 17 18 19 20 21 22 23 24 25 26 27 28 29 30 31 32 33 34 35 36 37 38 39 40 41 42 43 44 45 46 47 48 49 50
000
ASUS43 KIWX 241110
RWRIWX

KIWX WEATHER ROUNDUP
NATIONAL WEATHER SERVICE NORTHERN INDIANA
700 AM EDT TUE MAY 24 2016

NOTE: "FAIR" INDICATES FEW OR NO CLOUDS BELOW 12,000 FEET WITH NO
SIGNIFICANT WEATHER AND/OR OBSTRUCTIONS TO VISIBILITY.

* THESE STATIONS ARE NOT UNDER NWS QUALITY CONTROL. THEY ALSO MAY NOT
  REPORT WEATHER SUCH AS PRECIPITATION OR FOG.

INZ001>027-241200-
NORTHERN INDIANA

CITY           SKY/WX    TMP DP  RH WIND       PRES   REMARKS
GARY*          PTCLDY    64  50  59 S6        30.00R
VALPARAISO     CLEAR     57  41  55 CALM      30.02R
MICHIGAN CITY* CLEAR     61  43  51 SW7       30.01S
LAPORTE*       CLEAR     55  45  70 CALM      30.02S
KNOX*          CLEAR     55  32  41 CALM      30.02R
SOUTH BEND     CLEAR     56  41  57 SW8       30.03R
ELKHART*       CLEAR     50  46  87 MISG      30.03
GOSHEN         CLEAR     50  39  66 S3        30.03R
MONTICELLO*    CLOUDY    58  39  48 S5        30.02S
LOGANSPORT*    CLEAR     54  43  66 S3        30.05R
ROCHESTER*     CLEAR     61  43  51 S5        30.04R
WARSAW*        CLEAR     48  41  76 CALM      30.04R
ANGOLA*        CLEAR     46  45  93 CALM      30.04R
FORT WAYNE     PTCLDY    52  45  77 S3        30.06R
HUNTINGTON*    CLEAR     50  46  88 CALM      30.05R
PERU/GRISSOM   CLEAR     54  44  69 S7        30.04R
MARION*        CLEAR     52  46  78 CALM      30.06R

$$
INZ028>050-241200-
CENTRAL INDIANA

CITY           SKY/WX    TMP DP  RH WIND       PRES   REMARKS
LAFAYETTE      CLOUDY    52  45  77 CALM      30.03R
KOKOMO*        CLEAR     54  41  62 S6        30.05R
MUNCIE*        CLEAR     58  48  69 S5        30.07R
INDIANAPOLIS   MOCLDY    56  46  69 CALM      30.05R

$$
MIZ043>046-050>051-056>058-064>065-071>073-077>080-241200-
SOUTHWEST LOWER MICHIGAN

CITY           SKY/WX    TMP DP  RH WIND       PRES   REMARKS
BATTLE CREEK   CLEAR     50  40  68 SW3       30.03R
BENTON HARBOR  CLEAR     58  40  51 VRB5      30.00R
COLDWATER*     CLEAR     46  44  91 CALM      30.03R
HILLSDALE*     CLEAR     56  36  47 SW3       30.04R
HOLLAND        CLEAR     55  41  59 S5        29.99S
GRAND RAPIDS   PTCLDY    54  41  61 S7        30.00R
KALAMAZOO      CLEAR     51  40  65 CALM      30.03R
STURGIS*       CLEAR     51  39  63 CALM      30.02R
THREE RIVERS*  FAIR      50  43  76 CALM      30.03R

$$
OHZ001>008-015>018-024>025-241200-
NORTHWEST OHIO

CITY           SKY/WX    TMP DP  RH WIND       PRES   REMARKS
WAUSEON*         N/A     50  50 100 CALM      30.05R
DEFIANCE       CLEAR     49  45  86 CALM      30.05R
FINDLAY        CLEAR     53  45  74 S3        30.05R
TOLEDO EXPRESS CLEAR     48  47  96 CALM      30.04R
TOLEDO METCALF CLEAR     55  47  74 SW5       30.05R
LIMA           CLEAR     56  47  71 S6        30.07R

$$
AND FOR LAKE MICHIGAN COASTAL AND OPEN LAKE BUOY OBSERVATIONS

STATION/POSITION TEMP    WIND        PRES    VSBY  WAVE
                 AIR SEA DIR/SP/G                  HT/PER
                 (F)     (DEG/KT/KT) (MB)    (MI)  (FT/S)
CALUMET HARBOR    64     180/  5/  8 1014.6R
MICHIGAN CITY     65     160/ 14/ 16   N/A
BURNS HARBOR      63     190/ 11/ 16 1015.9R
SAINT JOSEPH      64     160/  6/ 12 1016.6R
SOUTH LAKE BUOY   52 47  170/ 10/ 12 1014.6R         1
4 MI NW BRIDGMAN  60 56  180/  6/  8   N/A           1
MICHIGAN CITY     62 56  200/  8/ 10   N/A           1/ 2

$$
&&



USA.gov is the U.S. government's official web portal to all federal, state and local government web resources and services.